• In Deutschland
  • Länderverzeichnis
  • Für 7 Tage
  • Wassertemperatur
  • Satellitenkarten
  • Wetterkarte
  • Widgets
  • user-avatar
    Anmelden

    Stündliche Wetter Sindelfingen

    Heute, 19 September, Mittwoch

    Zeit Temperatur Niederschläge Wind Luftdruck Luftfeuchtigkeit
    00:00 +18°C° 0 mm 1 m/S 723 mmHg 79%
    01:00 +17°C° 0 mm 2 m/S 724 mmHg 81%
    02:00 +18°C° 0.2 mm 1 m/S 724 mmHg 82%
    03:00 +16°C° 0.2 mm 1 m/S 724 mmHg 83%
    04:00 +16°C° 0.2 mm 1 m/S 724 mmHg 83%
    05:00 +16°C° 0 mm 1 m/S 724 mmHg 83%
    06:00 +16°C° 0 mm 1 m/S 724 mmHg 82%
    07:00 +18°C° 0 mm 1 m/S 725 mmHg 81%
    08:00 +20°C° 0 mm 1 m/S 725 mmHg 73%
    09:00 +22°C° 0 mm 1 m/S 725 mmHg 65%
    10:00 +24°C° 0 mm 1 m/S 726 mmHg 58%
    11:00 +26°C° 0 mm 1 m/S 726 mmHg 53%
    12:00 +27°C° 0 mm 1 m/S 726 mmHg 48%
    13:00 +28°C° 0 mm 1 m/S 726 mmHg 43%
    14:00 +28°C° 0 mm 1 m/S 725 mmHg 43%
    15:00 +28°C° 0 mm 1 m/S 725 mmHg 43%
    16:00 +28°C° 0 mm 1 m/S 725 mmHg 44%
    17:00 +26°C° 0 mm 1 m/S 725 mmHg 50%
    18:00 +24°C° 0 mm 1 m/S 725 mmHg 57%
    19:00 +21°C° 0 mm 1 m/S 725 mmHg 64%
    20:00 +21°C° 0 mm 1 m/S 725 mmHg 66%
    21:00 +20°C° 0 mm 1 m/S 725 mmHg 69%
    22:00 +20°C° 0 mm 1 m/S 725 mmHg 71%
    23:00 +19°C° 0 mm 1 m/S 725 mmHg 72%

    Morgen, 20 September, Donnerstag

    Zeit Temperatur Niederschläge Wind Luftdruck Luftfeuchtigkeit
    00:00 +19°C° 0 mm 1 m/S 725 mmHg 73%
    01:00 +18°C° 0 mm 1 m/S 725 mmHg 75%
    02:00 +18°C° 0 mm 1 m/S 725 mmHg 76%
    03:00 +18°C° 0 mm 1 m/S 725 mmHg 77%
    04:00 +16°C° 0 mm 1 m/S 725 mmHg 78%
    05:00 +16°C° 0 mm 1 m/S 725 mmHg 78%
    06:00 +16°C° 0 mm 1 m/S 725 mmHg 78%
    07:00 +18°C° 0 mm 1 m/S 725 mmHg 79%
    08:00 +20°C° 0 mm 1 m/S 725 mmHg 71%
    09:00 +22°C° 0 mm 1 m/S 725 mmHg 64%
    10:00 +25°C° 0 mm 1 m/S 726 mmHg 57%
    11:00 +26°C° 0 mm 1 m/S 725 mmHg 53%
    12:00 +27°C° 0 mm 1 m/S 725 mmHg 50%
    13:00 +28°C° 0 mm 1 m/S 725 mmHg 46%
    14:00 +28°C° 0 mm 1 m/S 724 mmHg 46%
    15:00 +28°C° 0 mm 1 m/S 724 mmHg 46%
    16:00 +28°C° 0 mm 1 m/S 724 mmHg 46%
    17:00 +26°C° 0 mm 1 m/S 723 mmHg 53%
    18:00 +23°C° 0 mm 1 m/S 723 mmHg 60%
    19:00 +21°C° 0 mm 1 m/S 722 mmHg 68%
    20:00 +20°C° 0 mm 1 m/S 722 mmHg 71%
    21:00 +20°C° 0 mm 1 m/S 722 mmHg 74%
    22:00 +18°C° 0 mm 2 m/S 722 mmHg 77%
    23:00 +18°C° 0 mm 2 m/S 722 mmHg 78%

    übermorgen, 21 September, Freitag

    Zeit Temperatur Niederschläge Wind Luftdruck Luftfeuchtigkeit
    00:00 +17°C° 0 mm 2 m/S 721 mmHg 79%
    01:00 +17°C° 0 mm 2 m/S 721 mmHg 81%
    02:00 +17°C° 0 mm 2 m/S 721 mmHg 80%
    03:00 +17°C° 0 mm 2 m/S 720 mmHg 79%
    04:00 +16°C° 0 mm 2 m/S 720 mmHg 78%
    05:00 +17°C° 0 mm 2 m/S 720 mmHg 76%
    06:00 +17°C° 0 mm 3 m/S 720 mmHg 74%
    07:00 +17°C° 0 mm 3 m/S 720 mmHg 73%
    08:00 +19°C° 0 mm 4 m/S 720 mmHg 66%
    09:00 +22°C° 0 mm 5 m/S 720 mmHg 59%
    10:00 +24°C° 0 mm 6 m/S 720 mmHg 52%
    11:00 +24°C° 0 mm 6 m/S 720 mmHg 50%
    12:00 +26°C° 0 mm 6 m/S 720 mmHg 47%
    13:00 +26°C° 0 mm 7 m/S 721 mmHg 45%
    14:00 +24°C° 0.1 mm 6 m/S 721 mmHg 50%
    15:00 +23°C° 0.1 mm 6 m/S 720 mmHg 56%
    16:00 +22°C° 0.1 mm 5 m/S 720 mmHg 62%
    17:00 +20°C° 1 mm 5 m/S 721 mmHg 71%
    18:00 +18°C° 1 mm 4 m/S 721 mmHg 80%
    19:00 +14°C° 1 mm 3 m/S 722 mmHg 89%
    20:00 +13°C° 1.2 mm 3 m/S 722 mmHg 88%
    21:00 +12°C° 1.2 mm 3 m/S 723 mmHg 87%
    22:00 +11°C° 1.2 mm 3 m/S 724 mmHg 87%
    23:00 +11°C° 0.6 mm 3 m/S 724 mmHg 87%

    22 September, Samstag

    Zeit Temperatur Niederschläge Wind Luftdruck Luftfeuchtigkeit
    00:00 +10°C° 0.6 mm 2 m/S 724 mmHg 88%
    01:00 +10°C° 0.6 mm 2 m/S 724 mmHg 88%
    02:00 +10°C° 0 mm 2 m/S 725 mmHg 89%
    03:00 +10°C° 0 mm 2 m/S 725 mmHg 89%
    04:00 +10°C° 0 mm 2 m/S 725 mmHg 89%
    05:00 +10°C° 0.1 mm 2 m/S 725 mmHg 89%
    06:00 +10°C° 0.1 mm 2 m/S 726 mmHg 89%
    07:00 +10°C° 0.1 mm 2 m/S 726 mmHg 89%
    08:00 +12°C° 0.1 mm 2 m/S 726 mmHg 82%
    09:00 +13°C° 0.1 mm 2 m/S 726 mmHg 75%
    10:00 +14°C° 0.1 mm 2 m/S 727 mmHg 69%
    11:00 +14°C° 0.1 mm 3 m/S 727 mmHg 63%
    12:00 +16°C° 0.1 mm 3 m/S 726 mmHg 58%
    13:00 +16°C° 0.1 mm 3 m/S 726 mmHg 53%
    14:00 +16°C° 0 mm 3 m/S 726 mmHg 52%
    15:00 +17°C° 0 mm 3 m/S 726 mmHg 50%
    16:00 +17°C° 0 mm 3 m/S 726 mmHg 49%
    17:00 +14°C° 0 mm 3 m/S 726 mmHg 54%
    18:00 +13°C° 0 mm 2 m/S 726 mmHg 59%
    19:00 +12°C° 0 mm 1 m/S 726 mmHg 64%
    20:00 +11°C° 0 mm 1 m/S 726 mmHg 66%
    21:00 +11°C° 0 mm 1 m/S 726 mmHg 67%
    22:00 +10°C° 0 mm 1 m/S 726 mmHg 69%
    23:00 +10°C° 0 mm 1 m/S 725 mmHg 69%

    23 September, Sonntag

    Zeit Temperatur Niederschläge Wind Luftdruck Luftfeuchtigkeit
    00:00 +10°C° 0 mm 1 m/S 725 mmHg 70%
    01:00 +9°C° 0 mm 1 m/S 724 mmHg 71%
    02:00 +10°C° 0 mm 1 m/S 724 mmHg 69%
    03:00 +11°C° 0 mm 1 m/S 723 mmHg 68%
    04:00 +10°C° 0 mm 2 m/S 723 mmHg 67%
    05:00 +10°C° 0.1 mm 2 m/S 722 mmHg 71%
    06:00 +10°C° 0.1 mm 2 m/S 721 mmHg 75%
    07:00 +10°C° 0.1 mm 2 m/S 720 mmHg 80%
    08:00 +12°C° 0 mm 3 m/S 720 mmHg 75%
    09:00 +13°C° 0 mm 3 m/S 719 mmHg 71%
    10:00 +15°C° 0 mm 4 m/S 718 mmHg 66%
    11:00 +18°C° 0 mm 4 m/S 717 mmHg 60%
    12:00 +21°C° 0 mm 5 m/S 716 mmHg 55%
    13:00 +23°C° 0 mm 6 m/S 715 mmHg 49%
    14:00 +23°C° 0.2 mm 5 m/S 713 mmHg 54%
    15:00 +23°C° 0.2 mm 5 m/S 712 mmHg 60%
    16:00 +22°C° 0.2 mm 5 m/S 710 mmHg 65%
    17:00 +21°C° 0.9 mm 6 m/S 710 mmHg 71%
    18:00 +18°C° 0.9 mm 7 m/S 710 mmHg 76%
    19:00 +16°C° 0.9 mm 9 m/S 710 mmHg 82%
    20:00 +13°C° 1.4 mm 9 m/S 711 mmHg 82%
    21:00 +12°C° 1.4 mm 9 m/S 712 mmHg 81%
    22:00 +10°C° 1.4 mm 9 m/S 713 mmHg 81%
    23:00 +8°C° 0.1 mm 9 m/S 712 mmHg 76%

    24 September, Montag

    Zeit Temperatur Niederschläge Wind Luftdruck Luftfeuchtigkeit
    00:00 +8°C° 0.1 mm 9 m/S 711 mmHg 72%
    01:00 +8°C° 0.1 mm 9 m/S 711 mmHg 67%
    02:00 +8°C° 0 mm 10 m/S 710 mmHg 65%
    03:00 +8°C° 0 mm 11 m/S 710 mmHg 64%
    04:00 +9°C° 0 mm 12 m/S 710 mmHg 63%
    05:00 +8°C° 1 mm 12 m/S 711 mmHg 71%
    06:00 +8°C° 1 mm 11 m/S 712 mmHg 78%
    07:00 +7°C° 1 mm 10 m/S 713 mmHg 86%
    08:00 +7°C° 0.3 mm 10 m/S 715 mmHg 85%
    09:00 +7°C° 0.3 mm 9 m/S 717 mmHg 83%
    10:00 +7°C° 0.3 mm 9 m/S 719 mmHg 82%
    11:00 +7°C° 0.3 mm 8 m/S 720 mmHg 80%
    12:00 +9°C° 0.3 mm 8 m/S 721 mmHg 78%
    13:00 +9°C° 0.3 mm 7 m/S 722 mmHg 76%
    14:00 +9°C° 0.6 mm 7 m/S 723 mmHg 77%
    15:00 +9°C° 0.6 mm 6 m/S 724 mmHg 78%
    16:00 +9°C° 0.6 mm 6 m/S 724 mmHg 78%
    17:00 +8°C° 0.3 mm 5 m/S 725 mmHg 80%
    18:00 +7°C° 0.3 mm 5 m/S 725 mmHg 82%
    19:00 +6°C° 0.3 mm 4 m/S 726 mmHg 84%
    20:00 +6°C° 0.1 mm 4 m/S 727 mmHg 85%
    21:00 +5°C° 0.1 mm 3 m/S 727 mmHg 86%
    22:00 +5°C° 0.1 mm 3 m/S 728 mmHg 86%
    23:00 +4°C° 0 mm 3 m/S 728 mmHg 87%
    Mehr zeigen